Skip Page Navigation
NASA JPL Caltech
NASA Logo - Jet Propulsion Laboratory + View the NASA Portal
+ Center for Near-Earth Object Studies
JPL Home Earth Solar System Stars & Galaxies Technology
JPL Solar System Dynamics
BODIES ORBITS EPHEMERIDES TOOLS PHYSICAL DATA DISCOVERY FAQ SITE MAP
JPL Small-Body Database Browser
Search: [ help ]  
134766 (2000 CY102)
Classification: Inner Main-belt Asteroid          SPK-ID: 2134766
Ephemeris | Orbit Diagram | Orbital Elements | Mission Design | Physical Parameters | Discovery Circumstances ]

[ show orbit diagram ]
Orbital Elements at Epoch 2459000.5 (2020-May-31.0) TDB
Reference: JPL 21 (heliocentric ecliptic J2000)
 Element Value Uncertainty (1-sigma)   Units 
e .01478927183103038 6.6362e-08  
a 1.900190416101258 8.0477e-09 au
q 1.872087983506818 1.2553e-07 au
i 19.84507502057789 7.3829e-06 deg
node 323.4812049898798 1.5894e-05 deg
peri 206.5085056854099 0.00020318 deg
M 235.1172141825967 0.00020369 deg
tp 2459332.390016931689
(2021-Apr-27.89001693)
0.0005412 TDB
period 956.7403971121031
2.62
6.078e-06
1.664e-08
d
yr
n .376277620435649 2.3904e-09 deg/d
Q 1.928292848695698 8.1668e-09 au
  Orbit Determination Parameters
   # obs. used (total)      510  
   data-arc span      7149 days (19.57 yr)  
   first obs. used      2000-01-03  
   last obs. used      2019-07-31  
   planetary ephem.      DE431  
   SB-pert. ephem.      SB431-N16  
   condition code      0  
   norm. resid. RMS      .61654  
   source      ORB  
   producer      Otto Matic  
   solution date      2020-Jan-29 18:26:01  

Additional Information
 Earth MOID = .886654 au 
 Jupiter MOID = 3.08464 au 
 T_jup = 3.875 
[ show covariance matrix ]

Ephemeris | Orbit Diagram | Orbital Elements | Mission Design | Physical Parameters | Discovery Circumstances ]

Physical Parameter Table
Parameter Symbol Value Units Sigma Reference Notes
absolute magnitude H 16.2   n/a MPO320490  

134766 (2000 CY102)          Discovered 2000-Feb-05 by LINEAR at Socorro
Reference: 20060907/Numbers.arcLast Updated: 2006-09-10
Ephemeris | Orbit Diagram | Orbital Elements | Mission Design | Physical Parameters | Discovery Circumstances ]
ABOUT SSD CREDITS/AWARDS PRIVACY/COPYRIGHT GLOSSARY LINKS
FirstGov 2020-Oct-25 12:50 UT
(server date/time)  
NASA Home Page
Site Manager:   Ryan S. Park
Webmaster  Alan B. Chamberlin